This is the latest recevied weather packets stored in our database for station/object DK7AK. If no packets are shown the sender has not sent any weather packets the latest 10 day(s).
| Time | Temp. | Humidity | Pressure | Rain* | Wind** | Luminosity | Snow |
|---|---|---|---|---|---|---|---|
| 1777573204 | 16.67° C | 26% | 1018.1 hPa | 0 mm | - | - | - |
| 1777572004 | 18.89° C | 21% | 1018.1 hPa | 0 mm | - | - | - |
| 1777569004 | 21.11° C | 20% | 1018.1 hPa | 0 mm | - | - | - |
| 1777566003 | 21.67° C | 15% | 1018 hPa | 0 mm | - | - | - |
| 1777562104 | 20.56° C | 20% | 1018.3 hPa | 0 mm | - | - | - |
| 1777561504 | 20.56° C | 20% | 1018.2 hPa | 0 mm | - | - | - |
| 1777560604 | 21.11° C | 20% | 1018.5 hPa | 0 mm | - | - | - |
| 1777557004 | 20° C | 15% | 1019 hPa | 0 mm | - | - | - |
| 1777556704 | 20° C | 15% | 1018.9 hPa | 0 mm | - | - | - |
| 1777554304 | 19.44° C | 15% | 1019.2 hPa | 0 mm | - | - | - |
| 1777554004 | 18.89° C | 15% | 1019.6 hPa | 0 mm | - | - | - |
| 1777551304 | 18.33° C | 15% | 1019.9 hPa | 0 mm | - | - | - |
| 1777549204 | 17.22° C | 20% | 1020.3 hPa | 0 mm | - | - | - |
| 1777548904 | 17.22° C | 20% | 1020.6 hPa | 0 mm | - | - | - |
| 1777548604 | 17.22° C | 15% | 1020.6 hPa | 0 mm | - | - | - |
| 1777547104 | 16.11° C | 20% | 1020.6 hPa | 0 mm | - | - | - |
| 1777544704 | 15.56° C | 15% | 1020.9 hPa | 0 mm | - | - | - |
| 1777544405 | 15.56° C | 20% | 1021.2 hPa | 0 mm | - | - | - |
| 1777542004 | 13.89° C | 20% | 1021.1 hPa | 0 mm | - | - | - |
| 1777541105 | 13.33° C | 20% | 1021.2 hPa | 0 mm | - | - | - |
| 1777538704 | 12.78° C | 22% | 1021.6 hPa | 0 mm | - | - | - |
| 1777538405 | 12.78° C | 22% | 1021.6 hPa | 0 mm | - | - | - |
| 1777537204 | 11.67° C | 26% | 1021.7 hPa | 0 mm | - | - | - |
| 1777536304 | 11.67° C | 26% | 1021.7 hPa | 0 mm | - | - | - |
| 1777534204 | 11.11° C | 30% | 1021.7 hPa | 0 mm | - | - | - |
* Rain latest hour (hover to see other rain measurements)
** Current wind speed in m/s (hover to see current wind gust speed)